Location: Cuiry
(49.3858°N, 3.7708°E)
Time: 14:52:39
(UTC+00:00)

Cosmos 962 Rocket - Pass Details

Date: 12 January 2026
Orbit: 951 x 998 km, 83.0° (Epoch: 15 February)

Event Time Altitude Azimuth Distance (km) Brightness Sun altitude
Rises 17:07:28 0° 352° (N) 3,673 7.4 -9.1°
Reaches altitude 10° 17:10:00 10° 355° (N) 2,729 6.7 -9.5°
Maximum altitude 17:16:14 68° 78° (ENE) 1,057 4.5 -10.4°
Drops below altitude 10° 17:22:30 10° 161° (SSE) 2,742 6.9 -11.4°
Sets 17:25:03 0° 164° (SSE) 3,692 7.6 -11.8°
